This is the latest recevied weather packets stored in our database for station/object WB7AAV. If no packets are shown the sender has not sent any weather packets the latest 10 day(s).
| Time | Temp. | Humidity | Pressure | Rain* | Wind** | Luminosity | Snow |
|---|---|---|---|---|---|---|---|
| 1777245979 | 11.67° C | 67% | 1003.2 hPa | 0 mm | - | - | - |
| 1777245858 | 11.11° C | 66% | 1003.2 hPa | 0 mm | - | - | - |
| 1777245737 | 11.11° C | 66% | 1003.2 hPa | 0 mm | - | - | - |
| 1777245619 | 11.11° C | 69% | 1003.2 hPa | 0 mm | - | - | - |
| 1777245498 | 11.11° C | 71% | 1003.2 hPa | 0 mm | - | - | - |
| 1777245379 | 10.56° C | 71% | 1003.3 hPa | 0 mm | - | - | - |
| 1777245257 | 10.56° C | 72% | 1003.2 hPa | 0 mm | - | - | - |
| 1777245138 | 10° C | 72% | 1003.2 hPa | 0 mm | - | - | - |
| 1777245018 | 10.56° C | 70% | 1003.2 hPa | 0 mm | - | - | - |
| 1777244897 | 10.56° C | 72% | 1003.4 hPa | 0 mm | - | - | - |
| 1777244778 | 10° C | 76% | 1003.4 hPa | 0 mm | - | - | - |
| 1777244658 | 10° C | 75% | 1003.6 hPa | 0 mm | - | - | - |
| 1777244538 | 9.44° C | 76% | 1003.6 hPa | 0.25 mm | - | - | - |
| 1777244419 | 9.44° C | 77% | 1003.6 hPa | 0.25 mm | - | - | - |
| 1777244298 | 8.89° C | 79% | 1003.4 hPa | 0.25 mm | - | - | - |
| 1777244177 | 8.89° C | 78% | 1003.4 hPa | 0.51 mm | - | - | - |
| 1777244074 | 8.89° C | 78% | 1003.4 hPa | 0.76 mm | - | - | - |
| 1777243982 | 8.33° C | 78% | 1003.4 hPa | 1.02 mm | - | - | - |
| 1777243819 | 8.33° C | 79% | 1003.3 hPa | 1.02 mm | - | - | - |
| 1777243697 | 8.33° C | 80% | 1003.2 hPa | 1.27 mm | - | - | - |
| 1777243578 | 8.33° C | 80% | 1003.2 hPa | 1.27 mm | - | - | - |
| 1777243457 | 8.33° C | 83% | 1003.1 hPa | 1.52 mm | - | - | - |
| 1777243339 | 8.33° C | 80% | 1003.2 hPa | 1.52 mm | - | - | - |
| 1777243217 | 8.33° C | 80% | 1003.2 hPa | 1.52 mm | - | - | - |
| 1777243098 | 8.33° C | 82% | 1003.3 hPa | 1.52 mm | - | - | - |
* Rain latest hour (hover to see other rain measurements)
** Current wind speed in m/s (hover to see current wind gust speed)